Lid_Strength_Index
7 7 7 7 8 7 8 7 9 8 8 6 6 6 5 5 5 5 4 4 4 3 3 3 2 2 2 1 1 0 1 1 1 0 -0 -0 -0 -0 -0 -0 -0 -1 -0 -1
8 7 7 8 7 7 7 7 7 7 7 6 5 5 5 5 5 5 4 4 3 3 3 3 3 3 2 2 2 1 1 1 0 0 0 0 0 0 -0 -0 -0 -0 -0 -0
10 7 8 10 8 7 7 6 6 8 6 6 7 6 6 5 5 5 4 4 3 3 2 2 2 2 2 1 1 1 1 1 1 1 1 0 0 0 0 0 -0 0 0 -0
9 9 13 7 5 6 7 6 6 6 5 6 6 5 4 4 4 4 4 3 3 2 2 1 1 1 1 1 1 1 1 1 1 1 1 1 0 1 0 0 1 0 0 -0
10 10 9 8 7 7 8 8 6 6 6 6 5 5 5 3 3 3 3 2 2 1 2 2 2 1 1 2 2 1 2 1 1 1 1 1 1 1 1 1 1 1 0 0
9 11 13 8 5 4 5 10 5 5 6 6 5 7 6 3 3 3 2 2 2 2 2 1 1 1 1 2 2 2 1 1 1 0 1 1 1 1 0 0 1 1 0 0
10 10 8 6 5 4 10 8 4 4 4 5 5 5 3 3 3 2 2 2 2 2 2 1 1 1 2 2 2 1 1 1 1 0 1 1 1 0 1 1 1 1 1 0
9 10 12 4 5 8 5 4 4 4 4 4 4 3 3 3 3 2 2 2 2 2 2 1 1 1 2 2 1 1 1 1 1 1 1 1 1 1 1 1 2 2 2 2
7 8 5 4 4 3 3 4 3 3 3 3 3 4 3 3 3 2 2 2 2 2 2 1 1 1 2 2 1 1 1 1 2 2 2 1 1 1 2 2 2 2 2 3
8 6 5 4 3 3 3 3 3 3 3 3 3 3 3 2 2 2 2 2 2 2 2 2 1 1 1 1 1 1 2 2 2 3 3 4 5 3 2 2 2 3 4 5
6 6 5 4 3 3 3 3 3 2 3 3 3 3 2 2 2 2 2 2 2 2 2 2 1 1 1 1 1 1 2 3 2 3 5 7 9 10 6 8 5 2 4 5
7 5 5 4 3 3 3 3 3 3 3 2 2 3 2 3 2 2 2 2 2 2 2 2 2 1 2 1 1 2 4 3 3 4 5 6 7 8 12 12 12 13 13 8
5 4 3 4 2 2 3 3 2 2 2 3 2 2 2 3 2 3 2 2 2 2 2 2 1 2 1 2 1 3 4 4 3 4 4 5 6 6 7 9 12 14 14 13
3 3 5 4 4 3 2 2 3 2 2 2 2 2 2 2 2 2 2 2 2 2 2 2 2 2 1 2 2 3 3 6 3 2 2 4 4 4 4 6 7 9 14 13
3 3 3 3 3 3 2 2 3 3 3 3 2 2 2 3 2 2 2 2 2 2 2 2 2 2 1 1 1 2 1 2 1 1 1 2 1 1 4 6 7 9 8 10
3 3 3 3 3 3 3 3 3 3 3 3 2 2 2 2 2 1 2 2 3 3 2 2 2 2 2 2 1 1 1 3 2 1 1 2 1 1 2 3 4 5 5 6
4 4 4 4 4 3 3 3 3 2 3 3 2 2 2 2 2 2 2 2 2 2 2 2 3 1 1 2 2 2 2 2 3 1 2 3 3 4 5 4 4 4 4 5
3 2 3 3 3 3 3 3 2 2 3 2 2 2 2 2 2 2 2 2 2 2 2 1 1 2 2 2 2 2 3 3 3 3 2 3 2 2 3 3 3 3 2 3
2 2 3 2 2 2 2 2 2 2 2 2 2 2 2 2 2 2 2 2 2 3 2 1 1 1 1 1 2 2 2 3 3 2 3 5 4 4 3 2 2 2 3 3
2 2 2 2 2 2 2 2 2 2 2 2 2 2 2 2 2 2 2 2 2 2 0 1 0 1 3 2 2 2 3 4 4 4 4 4 4 4 4 6 4 3 3 3
3 2 2 2 2 2 2 2 2 2 2 2 2 2 2 2 1 1 2 3 1 1 2 3 1 2 2 3 3 2 3 4 4 3 3 3 2 2 1 1 1 1 0 0
3 3 2 2 2 2 2 2 2 2 2 2 2 2 2 2 2 1 1 1 1 4 2 2 2 2 3 3 3 3 2 2 1 1 1 1 1 1 1 0 1 0 0 0
3 3 2 2 2 2 1 2 2 2 2 2 2 2 2 2 2 2 3 0 0 3 1 1 3 4 4 3 2 2 2 1 1 1 0 0 0 0 0 0 0 0 0 0
3 2 2 2 2 2 3 2 2 2 1 1 1 1 1 2 2 1 0 2 4 3 1 1 3 5 6 0 0 0 0 0 0 0 0 3 0 -0 0 0 0 1 1 2
2 2 2 2 3 2 2 2 2 2 2 2 1 1 1 0 1 1 0 0 4 2 1 5 5 5 0 -0 -0 0 0 -0 0 0 -0 0 0 0 1 1 1 2 3 3
2 2 2 2 2 2 2 1 2 2 2 3 2 1 1 0 0 1 0 1 0 2 1 0 0 0 0 -0 -0 -0 -0 0 0 0 0 0 0 1 1 1 2 2 2 2
1 4 2 1 1 1 1 2 2 2 2 2 2 1 1 1 1 1 2 0 0 0 0 0 -0 0 -0 -0 -0 -0 -0 -0 1 -0 0 0 1 1 1 1 1 1 1 1